BVI62FG LPPR-EDDK

Flight info

Callsign BVI62FG
Flight time N/A
Altitude 24000
Route TURON P600 ASDEB/N0445F360 DCT LOTEE DCT AZFIC/N0441F340 UN741 MOKOR UN873 DITAL/N0441F370 UN491 TABOV/N0442F360 UM163 LEQOS DCT CTL/N0437F340 DCT ARDEN/N0438F350 DCT KOMOB DCT IBESA T860 ERUKI T856 DEPOK
Aircraft A320/M-SDE3FGHIRWY/LB1

Departure

Time N/A
Airport Francisco de Sá Carneiro Airport (LPPR)

Arrival

Time 2026-04-24 09:57
Airport Cologne Bonn Airport (EDDK)
Time Latitude Longitude Altitude Speed Heading
2026-04-24 08:41 46.65868 -2.87119 36160 ft 460 kts 59°
2026-04-24 08:41 46.67471 -2.83115 36161 ft 460 kts 59°
2026-04-24 08:42 46.70688 -2.75054 36166 ft 460 kts 59°
2026-04-24 08:42 46.73891 -2.66972 36166 ft 460 kts 59°
2026-04-24 08:43 46.77089 -2.58884 36164 ft 460 kts 59°
2026-04-24 08:43 46.80267 -2.50864 36163 ft 459 kts 59°
2026-04-24 08:44 46.83464 -2.42770 36164 ft 459 kts 59°
2026-04-24 08:44 46.86650 -2.34678 36164 ft 459 kts 59°
2026-04-24 08:45 46.89949 -2.26736 36163 ft 459 kts 57°
2026-04-24 08:45 46.93833 -2.19367 36165 ft 457 kts 46°
2026-04-24 08:46 46.98150 -2.12516 36167 ft 457 kts 46°
2026-04-24 08:46 47.02463 -2.05650 36170 ft 457 kts 46°
2026-04-24 08:47 47.06765 -1.98782 36172 ft 457 kts 46°
2026-04-24 08:47 47.11035 -1.91954 36172 ft 457 kts 46°
2026-04-24 08:48 47.15330 -1.85081 36178 ft 456 kts 46°
2026-04-24 08:48 47.19597 -1.78215 36180 ft 456 kts 46°
2026-04-24 08:49 47.23866 -1.71317 36175 ft 456 kts 46°
2026-04-24 08:49 47.28154 -1.64389 36174 ft 456 kts 46°
2026-04-24 08:50 47.32420 -1.57484 36173 ft 455 kts 46°
2026-04-24 08:50 47.36674 -1.50581 36176 ft 455 kts 46°
2026-04-24 08:51 47.40909 -1.43695 36174 ft 455 kts 46°
2026-04-24 08:51 47.45152 -1.36760 36171 ft 455 kts 46°
2026-04-24 08:52 47.49391 -1.29815 36178 ft 455 kts 46°
2026-04-24 08:52 47.53633 -1.22851 36183 ft 456 kts 46°
2026-04-24 08:53 47.57878 -1.15857 36186 ft 456 kts 46°
2026-04-24 08:53 47.62118 -1.08858 36195 ft 456 kts 46°
2026-04-24 08:54 47.66359 -1.01842 36198 ft 456 kts 46°
2026-04-24 08:54 47.70570 -0.94860 36203 ft 456 kts 46°
2026-04-24 08:55 47.74755 -0.87752 36210 ft 457 kts 49°
2026-04-24 08:55 47.78656 -0.80266 36210 ft 458 kts 52°
2026-04-24 08:56 47.82433 -0.72636 36212 ft 458 kts 52°
2026-04-24 08:56 47.86259 -0.65060 36212 ft 457 kts 51°
2026-04-24 08:57 47.90134 -0.57535 36212 ft 457 kts 51°
2026-04-24 08:57 47.93982 -0.50055 36213 ft 458 kts 51°
2026-04-24 08:58 47.97836 -0.42500 36215 ft 457 kts 51°
2026-04-24 08:58 48.01675 -0.34917 36216 ft 457 kts 51°
2026-04-24 08:59 48.05509 -0.27351 36213 ft 456 kts 51°
2026-04-24 08:59 48.09363 -0.19804 36215 ft 456 kts 51°
2026-04-24 09:00 48.13260 -0.12312 36218 ft 455 kts 50°
2026-04-24 09:00 48.17141 -0.04886 36221 ft 455 kts 50°
2026-04-24 09:01 48.21022 0.02613 36224 ft 455 kts 50°
2026-04-24 09:01 48.24892 0.10118 36231 ft 454 kts 50°
2026-04-24 09:02 48.28745 0.17620 36235 ft 454 kts 50°
2026-04-24 09:02 48.32576 0.25137 36238 ft 453 kts 50°
2026-04-24 09:03 48.36383 0.32622 36242 ft 453 kts 50°
2026-04-24 09:03 48.40214 0.40139 36242 ft 453 kts 50°
2026-04-24 09:04 48.44077 0.47654 36251 ft 453 kts 50°
2026-04-24 09:04 48.47948 0.55173 36253 ft 453 kts 51°
2026-04-24 09:05 48.51886 0.62596 36255 ft 452 kts 44°
2026-04-24 09:05 48.56705 0.68616 36256 ft 450 kts 36°
2026-04-24 09:06 48.61672 0.74262 36255 ft 450 kts 36°
2026-04-24 09:06 48.66673 0.79971 36259 ft 450 kts 37°
2026-04-24 09:06 48.68989 0.83144 36259 ft 451 kts 49°
2026-04-24 09:07 48.70828 0.86988 36264 ft 451 kts 60°
2026-04-24 09:07 48.72130 0.91306 36264 ft 452 kts 72°
2026-04-24 09:07 48.72876 1.00682 36251 ft 450 kts 96°
2026-04-24 09:08 48.71743 1.10023 36249 ft 451 kts 102°
2026-04-24 09:08 48.70509 1.19354 36267 ft 452 kts 102°
2026-04-24 09:09 48.69282 1.28619 36277 ft 451 kts 102°
2026-04-24 09:09 48.68044 1.37926 36276 ft 451 kts 102°
2026-04-24 09:10 48.66809 1.47226 36273 ft 450 kts 102°
2026-04-24 09:10 48.65550 1.56529 36276 ft 450 kts 102°
2026-04-24 09:11 48.65241 1.65883 36273 ft 450 kts 83°
2026-04-24 09:11 48.66885 1.75000 36270 ft 450 kts 70°
2026-04-24 09:12 48.69055 1.83901 36268 ft 450 kts 71°
2026-04-24 09:12 48.71195 1.92807 36267 ft 450 kts 71°
2026-04-24 09:13 48.73335 2.01732 36266 ft 450 kts 71°
2026-04-24 09:13 48.75462 2.10592 36269 ft 449 kts 71°
2026-04-24 09:14 48.77735 2.19416 36273 ft 449 kts 69°
2026-04-24 09:14 48.80138 2.28151 36287 ft 449 kts 69°
2026-04-24 09:15 48.82516 2.36896 36287 ft 448 kts 70°
2026-04-24 09:15 48.84841 2.45674 36283 ft 447 kts 69°
2026-04-24 09:16 48.87152 2.54467 36259 ft 448 kts 70°
2026-04-24 09:16 48.89471 2.63278 36257 ft 450 kts 70°
2026-04-24 09:17 48.91793 2.72135 36259 ft 451 kts 70°
2026-04-24 09:17 48.94110 2.81006 36256 ft 452 kts 70°
2026-04-24 09:18 48.96411 2.89849 36255 ft 452 kts 70°
2026-04-24 09:18 48.98716 2.98747 36255 ft 452 kts 70°
2026-04-24 09:19 49.01020 3.07680 36257 ft 453 kts 71°
2026-04-24 09:19 49.02939 3.15163 36255 ft 453 kts 71°
2026-04-24 09:20 49.05608 3.25584 36260 ft 454 kts 71°
2026-04-24 09:20 49.07517 3.33036 36262 ft 454 kts 71°
2026-04-24 09:21 49.09800 3.42028 36265 ft 455 kts 71°
2026-04-24 09:21 49.12071 3.50993 36265 ft 455 kts 71°
2026-04-24 09:22 49.14971 3.59605 36269 ft 460 kts 56°
2026-04-24 09:22 49.19160 3.67064 36271 ft 463 kts 50°
2026-04-24 09:23 49.23433 3.74454 36272 ft 464 kts 51°
2026-04-24 09:23 49.27697 3.81890 36273 ft 465 kts 51°
2026-04-24 09:24 49.31961 3.89335 36273 ft 465 kts 51°
2026-04-24 09:24 49.36237 3.96805 36272 ft 466 kts 51°
2026-04-24 09:25 49.40485 4.04249 36266 ft 467 kts 51°
2026-04-24 09:25 49.44766 4.11765 36264 ft 468 kts 51°
2026-04-24 09:26 49.49042 4.19313 36265 ft 469 kts 51°
2026-04-24 09:26 49.53324 4.26889 36273 ft 469 kts 51°
2026-04-24 09:27 49.57608 4.34477 36281 ft 470 kts 51°
2026-04-24 09:27 49.61886 4.42090 36287 ft 469 kts 51°
2026-04-24 09:28 49.66129 4.49673 36290 ft 470 kts 51°
2026-04-24 09:28 49.70405 4.57332 36295 ft 470 kts 51°
2026-04-24 09:29 49.74671 4.64993 36299 ft 470 kts 51°
2026-04-24 09:29 49.78940 4.72669 36304 ft 470 kts 51°
2026-04-24 09:30 49.83886 4.81595 36309 ft 469 kts 51°
2026-04-24 09:30 49.87420 4.87994 36315 ft 469 kts 52°
2026-04-24 09:31 49.91662 4.95695 36312 ft 469 kts 52°
2026-04-24 09:31 49.95895 5.03409 36317 ft 468 kts 52°
2026-04-24 09:32 50.00117 5.11127 36319 ft 468 kts 52°
2026-04-24 09:32 50.02201 5.14942 36010 ft 469 kts 51°
2026-04-24 09:32 50.04319 5.18815 35645 ft 470 kts 51°
2026-04-24 09:33 50.06441 5.22699 35299 ft 471 kts 51°
2026-04-24 09:33 50.08565 5.26605 34891 ft 476 kts 51°
2026-04-24 09:33 50.10730 5.30606 33955 ft 487 kts 51°
2026-04-24 09:33 50.12914 5.34645 33211 ft 484 kts 51°
2026-04-24 09:34 50.14932 5.38841 32754 ft 486 kts 60°
2026-04-24 09:34 50.16658 5.43417 32171 ft 492 kts 62°
2026-04-24 09:34 50.18368 5.48049 31601 ft 491 kts 62°
2026-04-24 09:34 50.20032 5.52557 31247 ft 481 kts 62°
2026-04-24 09:35 50.21696 5.57057 30742 ft 475 kts 62°
2026-04-24 09:35 50.23325 5.61475 30517 ft 463 kts 62°
2026-04-24 09:35 50.24909 5.65774 30342 ft 451 kts 62°
2026-04-24 09:35 50.26457 5.69988 29954 ft 444 kts 62°
2026-04-24 09:36 50.27984 5.74153 29497 ft 440 kts 62°
2026-04-24 09:36 50.29500 5.78289 29015 ft 436 kts 62°
2026-04-24 09:36 50.31001 5.82395 28538 ft 432 kts 62°
2026-04-24 09:36 50.32484 5.86455 28056 ft 428 kts 62°
2026-04-24 09:37 50.33958 5.90490 27579 ft 425 kts 62°
2026-04-24 09:37 50.35423 5.94502 27104 ft 421 kts 62°
2026-04-24 09:37 50.36869 5.98476 26639 ft 418 kts 62°
2026-04-24 09:37 50.38297 6.02421 26179 ft 415 kts 62°
2026-04-24 09:38 50.39713 6.06337 25718 ft 412 kts 62°
2026-04-24 09:38 50.41101 6.10177 25226 ft 408 kts 62°
2026-04-24 09:38 50.42494 6.14031 24680 ft 404 kts 61°
2026-04-24 09:38 50.43872 6.17848 24154 ft 400 kts 62°
2026-04-24 09:39 50.45239 6.21638 23621 ft 397 kts 61°
2026-04-24 09:39 50.46591 6.25392 23064 ft 392 kts 61°
2026-04-24 09:39 50.47923 6.29101 22353 ft 388 kts 61°
2026-04-24 09:39 50.49230 6.32770 21652 ft 382 kts 63°
2026-04-24 09:40 50.50312 6.36552 20939 ft 377 kts 68°
2026-04-24 09:40 50.51337 6.40331 20380 ft 375 kts 67°
2026-04-24 09:40 50.52362 6.44090 19929 ft 373 kts 67°
2026-04-24 09:40 50.53383 6.47823 19456 ft 370 kts 67°
2026-04-24 09:41 50.54398 6.51526 18983 ft 367 kts 67°
2026-04-24 09:41 50.55404 6.55208 18509 ft 365 kts 67°
2026-04-24 09:41 50.56389 6.58826 18038 ft 363 kts 67°
2026-04-24 09:41 50.57374 6.62469 17569 ft 360 kts 67°
2026-04-24 09:42 50.58350 6.66086 17098 ft 358 kts 66°
2026-04-24 09:42 50.59320 6.69673 16631 ft 355 kts 66°
2026-04-24 09:42 50.60448 6.73107 16154 ft 352 kts 56°
2026-04-24 09:42 50.61989 6.76069 15699 ft 348 kts 44°
2026-04-24 09:43 50.63866 6.78441 15313 ft 342 kts 32°
2026-04-24 09:43 50.65802 6.80441 15014 ft 325 kts 33°
2026-04-24 09:43 50.67671 6.82401 14566 ft 321 kts 33°
2026-04-24 09:43 50.69512 6.84352 14248 ft 317 kts 33°
2026-04-24 09:44 50.71263 6.86450 13905 ft 315 kts 42°
2026-04-24 09:44 50.72731 6.89004 13559 ft 314 kts 49°
2026-04-24 09:44 50.74117 6.91643 13236 ft 311 kts 49°
2026-04-24 09:44 50.75475 6.94222 12996 ft 301 kts 49°
2026-04-24 09:45 50.76805 6.96743 12616 ft 297 kts 49°
2026-04-24 09:45 50.78123 6.99240 12210 ft 295 kts 49°
2026-04-24 09:45 50.79426 7.01714 11792 ft 291 kts 49°
2026-04-24 09:45 50.80717 7.04174 11308 ft 289 kts 49°
2026-04-24 09:46 50.81995 7.06607 10836 ft 286 kts 48°
2026-04-24 09:46 50.83247 7.08989 10429 ft 281 kts 48°
2026-04-24 09:46 50.84399 7.11490 10276 ft 284 kts 61°
2026-04-24 09:46 50.84985 7.14440 10126 ft 280 kts 81°
2026-04-24 09:47 50.84891 7.17497 9867 ft 281 kts 101°
2026-04-24 09:47 50.84141 7.20364 9574 ft 283 kts 117°
2026-04-24 09:47 50.83182 7.23055 9254 ft 276 kts 116°
2026-04-24 09:47 50.82257 7.25646 9019 ft 267 kts 116°
2026-04-24 09:48 50.81359 7.28178 8621 ft 263 kts 116°
2026-04-24 09:48 50.80472 7.30686 8143 ft 260 kts 116°
2026-04-24 09:48 50.79596 7.33184 7670 ft 259 kts 116°
2026-04-24 09:48 50.78735 7.35622 7198 ft 257 kts 116°
2026-04-24 09:49 50.77865 7.38075 6705 ft 255 kts 116°
2026-04-24 09:49 50.76997 7.40523 6107 ft 257 kts 116°
2026-04-24 09:49 50.76140 7.42947 5819 ft 246 kts 116°
2026-04-24 09:49 50.75330 7.45227 5675 ft 230 kts 116°
2026-04-24 09:50 50.74539 7.47391 5550 ft 226 kts 122°
2026-04-24 09:50 50.73387 7.49065 5421 ft 225 kts 149°
2026-04-24 09:50 50.71914 7.49771 5317 ft 221 kts 176°
2026-04-24 09:50 50.70411 7.49425 5184 ft 219 kts 202°
2026-04-24 09:51 50.69170 7.48150 5048 ft 214 kts 229°
2026-04-24 09:51 50.68392 7.46260 4877 ft 202 kts 252°
2026-04-24 09:51 50.68137 7.44142 4616 ft 193 kts 275°
2026-04-24 09:51 50.68377 7.42100 4482 ft 187 kts 295°
2026-04-24 09:52 50.69030 7.40358 4366 ft 184 kts 314°
2026-04-24 09:52 50.69953 7.38981 4295 ft 183 kts 320°
2026-04-24 09:52 50.70895 7.37629 4111 ft 182 kts 320°
2026-04-24 09:52 50.71833 7.36283 3890 ft 182 kts 320°
2026-04-24 09:53 50.72767 7.34941 3651 ft 181 kts 320°
2026-04-24 09:53 50.73699 7.33605 3410 ft 180 kts 320°
2026-04-24 09:53 50.74613 7.32292 3179 ft 180 kts 319°
2026-04-24 09:53 50.75537 7.30963 2932 ft 179 kts 319°
2026-04-24 09:54 50.76459 7.29637 2701 ft 179 kts 319°
2026-04-24 09:54 50.77377 7.28318 2465 ft 178 kts 319°
2026-04-24 09:54 50.78291 7.27001 2228 ft 176 kts 319°
2026-04-24 09:54 50.79170 7.25734 1995 ft 164 kts 319°
2026-04-24 09:55 50.79986 7.24559 1797 ft 151 kts 319°
2026-04-24 09:55 50.80742 7.23468 1600 ft 143 kts 318°
2026-04-24 09:55 50.81471 7.22417 1410 ft 140 kts 319°
2026-04-24 09:55 50.82193 7.21375 1223 ft 140 kts 319°
2026-04-24 09:56 50.82899 7.20355 1038 ft 139 kts 318°
2026-04-24 09:56 50.83613 7.19325 852 ft 139 kts 318°
2026-04-24 09:56 50.84326 7.18295 669 ft 138 kts 318°
2026-04-24 09:56 50.85039 7.17265 489 ft 139 kts 318°
2026-04-24 09:57 50.85753 7.16232 313 ft 137 kts 317°
2026-04-24 09:57 50.86370 7.15336 285 ft 98 kts 317°
2026-04-24 09:57 50.86749 7.14788 268 ft 49 kts 317°
2026-04-24 09:57 50.86846 7.14644 263 ft 0 kts 315°
2026-04-24 09:58 50.86858 7.14626 263 ft 0 kts 315°
2026-04-24 09:59 50.88106 7.12095 233 ft 0 kts 216°